Location: ????????
(55.6189°N, 38.3031°E)
Time: 16:23:19
(UTC+00:00)

COSMOS 2441 - Pass Details

Date: 15 November 2019
Orbit: 707 x 732 km, 98.0° (Epoch: 14 December)

Event Time Altitude Azimuth Distance (km) Brightness Sun altitude
Rises 01:40:58 0° 16° (NNE) 3,149 8.0 -27.8°
Reaches altitude 10° 01:43:17 10° 18° (NNE) 2,220 7.2 -27.4°
Maximum altitude 01:48:09 72° 103° (ESE) 757 4.5 -26.8°
Enters shadow 01:48:57 59° 161° (SSE) 829 4.6 -26.6°
